Hourly Weather Otjimbingwe

Today, 1 December, Tuesday

Time Temperature Precipitation Wind Pressure Humidity
00:00 +20°C° 0 mm 1 mps 677 mmHg 38%
01:00 +18°C° 0 mm 0 mps 676 mmHg 41%
02:00 +17°C° 0 mm 0 mps 676 mmHg 41%
03:00 +17°C° 0 mm 0 mps 676 mmHg 40%
04:00 +16°C° 0 mm 0 mps 676 mmHg 40%
05:00 +18°C° 0 mm 0 mps 676 mmHg 34%
06:00 +21°C° 0 mm 0 mps 677 mmHg 28%
07:00 +23°C° 0 mm 0 mps 678 mmHg 21%
08:00 +28°C° 0 mm 1 mps 678 mmHg 16%
09:00 +30°C° 0 mm 2 mps 678 mmHg 12%
10:00 +34°C° 0 mm 3 mps 678 mmHg 8%
11:00 +35°C° 0 mm 4 mps 678 mmHg 8%
12:00 +36°C° 0 mm 6 mps 678 mmHg 8%
13:00 +39°C° 0 mm 7 mps 678 mmHg 9%
14:00 +38°C° 0 mm 8 mps 677 mmHg 10%
15:00 +38°C° 0 mm 8 mps 676 mmHg 11%
16:00 +37°C° 0 mm 9 mps 676 mmHg 11%
17:00 +33°C° 0 mm 8 mps 676 mmHg 15%
18:00 +30°C° 0 mm 7 mps 676 mmHg 18%
19:00 +27°C° 0 mm 6 mps 676 mmHg 22%
20:00 +25°C° 0 mm 4 mps 676 mmHg 24%
21:00 +24°C° 0 mm 3 mps 676 mmHg 25%
22:00 +23°C° 0 mm 2 mps 676 mmHg 27%
23:00 +21°C° 0 mm 2 mps 676 mmHg 29%

Tomorrow, 2 December, Wednesday

Time Temperature Precipitation Wind Pressure Humidity
00:00 +21°C° 0 mm 1 mps 676 mmHg 31%
01:00 +18°C° 0 mm 0 mps 675 mmHg 33%
02:00 +18°C° 0 mm 0 mps 675 mmHg 32%
03:00 +20°C° 0 mm 1 mps 675 mmHg 31%
04:00 +20°C° 0 mm 1 mps 674 mmHg 30%
05:00 +22°C° 0 mm 1 mps 675 mmHg 25%
06:00 +25°C° 0 mm 1 mps 676 mmHg 19%
07:00 +27°C° 0 mm 2 mps 676 mmHg 14%
08:00 +30°C° 0 mm 2 mps 677 mmHg 12%
09:00 +34°C° 0 mm 2 mps 677 mmHg 10%
10:00 +36°C° 0 mm 3 mps 677 mmHg 9%
11:00 +38°C° 0 mm 3 mps 677 mmHg 9%
12:00 +39°C° 0 mm 3 mps 676 mmHg 9%
13:00 +41°C° 0 mm 4 mps 676 mmHg 9%
14:00 +40°C° 0 mm 6 mps 675 mmHg 11%
15:00 +39°C° 0 mm 8 mps 675 mmHg 13%
16:00 +38°C° 0 mm 11 mps 674 mmHg 15%
17:00 +34°C° 0 mm 9 mps 674 mmHg 19%
18:00 +29°C° 0 mm 7 mps 674 mmHg 22%
19:00 +26°C° 0 mm 5 mps 674 mmHg 26%
20:00 +25°C° 0 mm 3 mps 675 mmHg 28%
21:00 +24°C° 0 mm 2 mps 675 mmHg 30%
22:00 +22°C° 0 mm 1 mps 676 mmHg 31%
23:00 +20°C° 0 mm 0 mps 675 mmHg 32%

Day after tomorrow, 3 December, Thursday

Time Temperature Precipitation Wind Pressure Humidity
00:00 +19°C° 0 mm 0 mps 675 mmHg 33%
01:00 +19°C° 0 mm 0 mps 675 mmHg 34%
02:00 +18°C° 0 mm 0 mps 675 mmHg 35%
03:00 +18°C° 0 mm 0 mps 674 mmHg 36%
04:00 +18°C° 0 mm 0 mps 674 mmHg 38%
05:00 +20°C° 0 mm 0 mps 675 mmHg 33%
06:00 +22°C° 0 mm 0 mps 676 mmHg 29%
07:00 +26°C° 0 mm 1 mps 676 mmHg 24%
08:00 +29°C° 0 mm 1 mps 677 mmHg 21%
09:00 +32°C° 0 mm 2 mps 677 mmHg 18%
10:00 +35°C° 0 mm 3 mps 677 mmHg 15%
11:00 +36°C° 0 mm 4 mps 677 mmHg 12%
12:00 +39°C° 0 mm 6 mps 677 mmHg 10%
13:00 +40°C° 0 mm 8 mps 676 mmHg 7%
14:00 +39°C° 0 mm 8 mps 676 mmHg 9%
15:00 +37°C° 0 mm 9 mps 676 mmHg 10%
16:00 +36°C° 0 mm 10 mps 675 mmHg 11%
17:00 +32°C° 0 mm 8 mps 675 mmHg 15%
18:00 +27°C° 0 mm 7 mps 675 mmHg 19%
19:00 +23°C° 0 mm 5 mps 675 mmHg 23%
20:00 +21°C° 0 mm 4 mps 675 mmHg 28%
21:00 +20°C° 0 mm 2 mps 676 mmHg 32%
22:00 +19°C° 0 mm 1 mps 676 mmHg 36%
23:00 +18°C° 0 mm 1 mps 675 mmHg 39%

4 December, Friday

Time Temperature Precipitation Wind Pressure Humidity
00:00 +15°C° 0 mm 0 mps 675 mmHg 41%
01:00 +14°C° 0 mm 0 mps 675 mmHg 44%
02:00 +14°C° 0 mm 0 mps 675 mmHg 45%
03:00 +13°C° 0 mm 0 mps 675 mmHg 46%
04:00 +13°C° 0 mm 0 mps 674 mmHg 47%
05:00 +16°C° 0 mm 0 mps 675 mmHg 40%
06:00 +18°C° 0 mm 0 mps 676 mmHg 32%
07:00 +21°C° 0 mm 0 mps 677 mmHg 25%
08:00 +25°C° 0 mm 1 mps 677 mmHg 20%
09:00 +28°C° 0 mm 1 mps 677 mmHg 16%
10:00 +31°C° 0 mm 2 mps 678 mmHg 11%
11:00 +34°C° 0 mm 3 mps 677 mmHg 9%
12:00 +35°C° 0 mm 4 mps 677 mmHg 7%
13:00 +38°C° 0 mm 6 mps 677 mmHg 6%
14:00 +36°C° 0 mm 7 mps 677 mmHg 8%
15:00 +35°C° 0 mm 8 mps 676 mmHg 10%
16:00 +34°C° 0 mm 9 mps 676 mmHg 12%
17:00 +31°C° 0 mm 8 mps 676 mmHg 19%
18:00 +26°C° 0 mm 7 mps 676 mmHg 26%
19:00 +22°C° 0 mm 5 mps 676 mmHg 33%
20:00 +20°C° 0 mm 4 mps 676 mmHg 38%
21:00 +19°C° 0 mm 3 mps 676 mmHg 43%
22:00 +18°C° 0 mm 1 mps 676 mmHg 48%
23:00 +16°C° 0 mm 1 mps 675 mmHg 50%

5 December, Saturday

Time Temperature Precipitation Wind Pressure Humidity
00:00 +15°C° 0 mm 1 mps 675 mmHg 53%
01:00 +14°C° 0 mm 0 mps 675 mmHg 56%
02:00 +13°C° 0 mm 0 mps 675 mmHg 57%
03:00 +13°C° 0 mm 0 mps 674 mmHg 58%
04:00 +12°C° 0 mm 0 mps 674 mmHg 60%
05:00 +15°C° 0 mm 0 mps 675 mmHg 51%
06:00 +17°C° 0 mm 0 mps 675 mmHg 42%
07:00 +20°C° 0 mm 0 mps 676 mmHg 34%
08:00 +25°C° 0 mm 1 mps 676 mmHg 28%
09:00 +28°C° 0 mm 1 mps 676 mmHg 22%
10:00 +31°C° 0 mm 2 mps 677 mmHg 17%
11:00 +34°C° 0 mm 3 mps 676 mmHg 14%
12:00 +36°C° 0 mm 5 mps 676 mmHg 12%
13:00 +38°C° 0 mm 6 mps 676 mmHg 10%
14:00 +36°C° 0 mm 7 mps 676 mmHg 13%
15:00 +35°C° 0 mm 9 mps 675 mmHg 17%
16:00 +34°C° 0 mm 10 mps 675 mmHg 20%
17:00 +29°C° 0 mm 9 mps 675 mmHg 28%
18:00 +26°C° 0 mm 7 mps 675 mmHg 37%
19:00 +21°C° 0 mm 6 mps 675 mmHg 45%
20:00 +20°C° 0 mm 4 mps 675 mmHg 52%
21:00 +18°C° 0 mm 3 mps 675 mmHg 59%
22:00 +16°C° 0 mm 1 mps 675 mmHg 66%
23:00 +16°C° 0 mm 1 mps 675 mmHg 69%

6 December, Sunday

Time Temperature Precipitation Wind Pressure Humidity
00:00 +15°C° 0 mm 1 mps 675 mmHg 73%
01:00 +14°C° 0 mm 1 mps 675 mmHg 76%
02:00 +14°C° 0 mm 1 mps 674 mmHg 78%
03:00 +12°C° 0 mm 0 mps 674 mmHg 80%
04:00 +12°C° 0 mm 0 mps 674 mmHg 82%
05:00 +14°C° 0 mm 0 mps 675 mmHg 72%
06:00 +16°C° 0 mm 0 mps 675 mmHg 62%
07:00 +18°C° 0 mm 0 mps 676 mmHg 52%
08:00 +24°C° 0 mm 1 mps 676 mmHg 42%
09:00 +27°C° 0 mm 2 mps 676 mmHg 31%
10:00 +31°C° 0 mm 2 mps 677 mmHg 20%
11:00 +33°C° 0 mm 4 mps 676 mmHg 18%
12:00 +35°C° 0 mm 6 mps 676 mmHg 16%
13:00 +38°C° 0 mm 7 mps 676 mmHg 14%
14:00 +37°C° 0 mm 8 mps 675 mmHg 16%
15:00 +34°C° 0 mm 9 mps 675 mmHg 19%
16:00 +33°C° 0 mm 10 mps 674 mmHg 21%
17:00 +29°C° 0 mm 9 mps 674 mmHg 29%
18:00 +24°C° 0 mm 7 mps 674 mmHg 37%
19:00 +21°C° 0 mm 6 mps 674 mmHg 44%
20:00 +19°C° 0 mm 5 mps 675 mmHg 52%
21:00 +17°C° 0 mm 3 mps 675 mmHg 60%
22:00 +15°C° 0 mm 2 mps 675 mmHg 67%
23:00 +15°C° 0 mm 1 mps 675 mmHg 71%
Show more